Regional Weather Roundup
Issued by NWS Wakefield, VA

Home | Current Version | Previous Version | Graphics & Text | Print | Product List | Glossary On
Versions: 1 2 3 4 5 6 7 8 9 10 11 12 13 14 15 16 17 18 19 20 21 22 23 24 25 26 27 28 29 30 31 32 33 34 35 36 37 38 39 40 41 42 43 44 45 46 47 48 49 50
000
ASUS41 KAKQ 190214
RWRAKQ

REGIONAL WEATHER ROUNDUP
NATIONAL WEATHER SERVICE WAKEFIELD VA
1000 PM EDT SAT APR 18 2015

Note: "fair" indicates few or no clouds below 12,000 feet with no
significant weather and/or obstructions to visibility. * = Denotes
station may not report precipitation (e.g., rain,snow,etc.),
thunder or fog.

VAZ042-051-052>054-056-190300-
NORTHERN VIRGINIA

CITY           SKY/WX    TMP DP  RH WIND       PRES   REMARKS
WASH NATIONAL  MOCLDY    70  50  49 S6        30.00R
DULLES         MOCLDY    60  47  61 CALM      30.00R
FORT BELVOIR   CLEAR     63  51  65 CALM      30.00R
QUANTICO       CLEAR     69  49  48 S3        30.01R
FREDERICKSBRG* CLEAR     64  51  62 SE3       30.00R
STAFFORD*      CLEAR     59  46  63 CALM      30.04R
WARRENTON      CLEAR     55  52  89 CALM      30.00R
CULPEPER*      PTCLDY    63  54  72 CALM      30.01R
MANASSAS*      CLEAR     59  54  82 CALM      30.00R
LEESBURG*      MOCLDY    64  52  63 CALM      30.01R
WINCHESTER     MOCLDY    64  43  45 CALM      30.01S
FRONT ROYAL*   FAIR      64  48  55 CALM      30.00S
LURAY*         FAIR      61  52  72 CALM      30.01S
$$

VAZ048-049-060>072-079>083-190300-
CENTRAL AND SOUTH CENTRAL VIRGINIA

CITY           SKY/WX    TMP DP  RH WIND       PRES   REMARKS
RICHMOND       MOCLDY    66  51  58 SE5       30.01R
CHESTERFIELD*  NOT AVBL
PETERSBURG*    PTCLDY    62  53  70 CALM      30.02R
HANOVER        CLEAR     61  51  70 SE3       30.02R
TAPPAHANNOCK*  CLEAR     65  48  53 S3        30.02S
QUINTON*       FAIR      64  52  64 CALM      30.01S
CHARLOTTSVILLE CLEAR     65  48  54 N3        30.01R
GORDONSVILLE*  FAIR      57  52  82 CALM      30.00S
ORANGE*        CLEAR     61  50  67 CALM      30.02R
LOUISA*        FAIR      61  48  63 CALM      30.00R
BUMPASS*       FAIR      59  49  68 CALM      30.01R
FARMVILLE*     PTCLDY    69  49  48 CALM      29.99R
CREWE*         FAIR      61  54  76 E3        30.00R
FORT PICKETT*  FAIR      67  56  67 E7        30.01R
CHASE CITY*    FAIR      72  57  59 E3        30.00R
CLARKSVILLE*   FAIR      68  61  77 CALM      29.99R
SOUTH HILL*    PTCLDY    67  59  74 SE3       30.06R
LAWRENCEVILLE* FAIR      69  62  78 CALM      30.01R
EMPORIA*       PTCLDY    66  61  82 SE3       30.03R
$$

VAZ088>098-190300-
SOUTHEAST VIRGINIA

CITY           SKY/WX    TMP DP  RH WIND       PRES   REMARKS
NORFOLK        CLEAR     62  57  83 CALM      30.02R
VIRGINIA BEACH PTCLDY    59  53  80 CALM      30.02R
NORFOLK NAVAL  MOCLDY    66  59  78 SE3       30.03R
WEST POINT*    PTCLDY    64  56  77 CALM      30.03S
SALUDA*        FAIR      61  56  84 S3        30.01S
NEWPORT NEWS   PTCLDY    61  56  83 CALM      30.02R
LANGLEY AFB    PTCLDY    58  56  94 E5        30.01R
FORT EUSTIS    PTCLDY    64  62  94 E2        29.99S
WILLIAMSBURG*  PTCLDY    64  61  88 SE3       30.02F
HR EXEC AP*    FAIR      63  57  82 E5        30.04R
FRANKLIN*      PTCLDY   N/A N/A N/A SE3       30.02R
WAKEFIELD      CLEAR     62  57  83 CALM      30.01R
$$

VAZ020-022-025-037-045-190300-
WEST CENTRAL AND SOUTHWEST VIRGINIA

CITY           SKY/WX    TMP DP  RH WIND       PRES   REMARKS
STAUNTON*      CLEAR     59  51  76 CALM      30.05R
WAYNESBORO*    FAIR      64  49  58 CALM      30.04R
HOT SPRINGS VA MOCLDY    61  44  53 E7        30.11R
LYNCHBURG      CLEAR     68  51  54 E5        30.02R
DANVILLE       MOCLDY    66  60  81 CALM      29.99R
SOUTH BOSTON*  FAIR      69  59  71 CALM      30.00R
MARTINSVILLE   PTCLDY    64  64 100 NW3       30.03R
ROANOKE        PTCLDY    70  51  51 E3        30.04R
BLACKSBURG     PTCLDY    67  50  55 E5        30.08R
DUBLIN*        PTCLDY    65  54  68 S3        30.06R
MARION*        MOCLDY    65  56  72 CALM      30.08R
HILLSVILLE*    MOCLDY    63  57  82 S3        30.06R
RICHLANDS*     MOCLDY    67  50  53 CALM      30.04R
WISE*          CLOUDY    66  50  55 S5        30.05S
ABINGDON*      DRIZZLE   67  57  70 CALM      30.02S
$$

MDZ021>025-VAZ099-100-190300-
SOUTHERN MARYLAND AND THE DELMARVA PENINSULA

CITY           SKY/WX    TMP DP  RH WIND       PRES   REMARKS
PATUXENT RIVER PTCLDY    58  51  78 CALM      29.99S
BAY BRIDGE APT   N/A     64  50  59 CALM      29.99R
LEONARDTOWN    PTCLDY    61  46  59 CALM      30.01S
DOVER          CLOUDY    64  54  68 S6        29.95R
GEORGETOWN     CLOUDY    62  49  62 S6        30.00S
EASTON         MOCLDY    67  52  58 SW3       30.03
CAMBRIDGE      NOT AVBL
SALISBURY      CLOUDY    59  50  72 CALM      30.00S
OCEAN CITY     CLOUDY    58  55  90 S3        30.01R
WALLOPS ISLAND CLOUDY    57  56  96 S5        30.02R
ACCOMACK*      MOCLDY    57  52  82 CALM      30.02R
$$

NCZ012>017-030>032-190300-
NORTH CENTRAL AND EASTERN NORTH CAROLINA

CITY           SKY/WX    TMP DP  RH WIND       PRES   REMARKS
ROANOKE RAPIDS FAIR      66  63  88 CALM      30.01S
RALEIGH        CLOUDY    68  62  81 CALM      29.99R
ELIZABETH CITY PTCLDY    61  58  90 CALM      30.02S
AHOSKIE*       MOCLDY    65  62  90 CALM      30.02S
EDENTON*       PTCLDY    63  61  92 E6        30.01F
CURRITUCK*     PTCLDY    60  58  92 CALM      30.03R
KILL DEVIL HLS PTCLDY    57  56  96 SE3       30.01S
MANTEO         PTCLDY    60  58  94 E5        30.03S
CAPE HATTERAS  PTCLDY    60  60 100 NE7       30.01R
TARBORO*       DRIZZLE   66  64  93 CALM      30.01S
GOLDSBORO      CLOUDY    70  64  83 E5        29.99R
WASHINGTON     CLOUDY    65  64  97 CALM      30.01S
GREENVILLE     LGT RAIN  64  64 100 SW3       30.01F
NEW BERN       PTCLDY    66  63  90 CALM      30.00S
WILMINGTON     MOCLDY    67  63  87 E5        29.99R
$$

VAZ048-190300-
ELSEWHERE

CITY           SKY/WX    TMP DP  RH WIND       PRES   REMARKS
HARRISBURG PA  MOCLDY    68  42  38 CALM      29.99R
BALTIMORE      MOCLDY    67  47  48 W3        29.99R
ANNAPOLIS      MOCLDY    62  52  69 CALM      29.99R
ANDREWS AFB    PTCLDY    64  50  60 S2        30.00R
PHILADELPHIA   CLOUDY    67  47  48 SW5       29.97R
HENDERSON NC   CLOUDY    66  61  82 CALM      29.99R
GREENSBORO     CLOUDY    69  61  75 S6        29.99R
ROCKY MOUNT    PTCLDY    67  63  87 E5        30.01R
$$

VAZ100-190300-
MARINE

STATION/POSITION TIME  TEMP    WIND        PRES    WAVE   SWELL
                       AIR SEA DIR/SP/G            HT/PER HT/PER
                 (UTC) (F)     (DEG/KT/KT) (MB)    (FT/S) (FT/S)
CAPE MAY NJ      0100   63 57  170/ 10/ 14 1014.8R
LEWES DE         0100   65 54  190/  6/  8 1015.3R
15NM E FENWICK I 0150   53 52              1015.7R   3/ 8
OCEAN-CITY-INLET 0100   54 50  210/  5/  5 1015.7R
WACHAPREAGUE VA  0100   58 64  100/  3/  4 1016.2R
THOMAS POINT MD  0200   68 55  210/  9/ 10 1016.2R
GOOSES REEF MD   0200   62 59  220/  4/  6   N/A     0
COVE POINT MD    0106   68     190/  5/  5 1015.5R
SOLOMONS ISLAND  0100      57                N/A
BISHOPS HEAD MD  0100   67 70  130/  4/  5 1015.4R
PINEY POINT MD   0106          130/  4/  4   N/A
CAMBRIDGE MD     0100   69 58  180/  3/  4 1015.2R
LEWISETTA VA     0100   67 63              1015.5R
RAPPAHANNOCK LGT 0100          130/  6/  6 1016.5R
STINGRAY PT      0200   59 57  180/  8/  8 1017.5R   0
YORK RVR RNG VA  0100   55     160/  8/  9 1015.6R
YORKTOWN VA      0106   61 59  100/  5/  6 1016.1R
DOMINION TERM VA 0100   62      90/  4/  4 1016.0R
KIPTOPEKE VA     0100      61  130/  3/  4   N/A
CHES BAY BRIDGE  0106   59 55  140/  6/  6 1016.0R
CAPE HENRY VA    0100   58     170/  4/  6 1015.0R
CHESAPEAKE LGHT  0100   55     140/  9/  9 1016.7R
WILLOUBY STN VA  0100   60      20/  2/  3 1016.7R
S CRANEY ISL VA  0100          150/  6/  6 1016.0R
CAPE HENRY BUOY  0128      53                N/A     3/ 8   2/14
1ST LANDING BUOY 0200   56     120/  4/  6 1016.2R   1/ 5
OFFSHORE WE BUOY 0111      51                N/A     3/ 8   3/ 8
64NM E OF VA BCH 0150   57 54  320/  2/  4 1015.9R   4/ 8   3/ 8
DUCK PIER NC     0100   56 57  100/  3/  4 1015.6R
44056 DUCK FRF   0111      56                N/A     3/ 7   2/13
OREGON INLET NC  0100   58 68   20/  7/  9 1016.3R
HATTERAS NC      0106   69 69   30/  5/  6 1015.7R
DIAMOND SHLS NC  0150   69 76   20/ 10/ 12 1015.6R   4/ 9   5/ 9
CAPE LOOKOUT NC  0200   68     360/  2/  2 1015.4R
$$


USA.gov is the U.S. government's official web portal to all federal, state and local government web resources and services.